MST,Max TemperatureF,Mean TemperatureF,Min TemperatureF,Max Dew PointF,MeanDew PointF,Min DewpointF,Max Humidity, Mean Humidity, Min Humidity, Max Sea Level PressureIn, Mean Sea Level PressureIn, Min Sea Level PressureIn, Max VisibilityMiles, Mean VisibilityMiles, Min VisibilityMiles, Max Wind SpeedMPH, Mean Wind SpeedMPH, Max Gust SpeedMPH,PrecipitationIn, CloudCover, Events, WindDirDegrees
2011-11-1,46,37,28,30,26,18,86,64,39,30.31,30.13,30.00,10,10,10,18,10,25,0.00,1,,316
2011-11-2,46,32,17,21,17,10,86,56,29,30.41,30.32,30.17,10,10,10,18,9,23,0.00,0,,216
2011-11-3,48,36,23,19,16,12,74,49,29,30.10,29.91,29.72,10,10,10,14,8,,0.00,0,,203
2011-11-4,50,34,19,23,18,12,86,59,30,29.69,29.65,29.57,10,10,8,10,4,,0.00,0,,184
2011-11-5,37,32,26,27,23,18,86,71,60,29.51,29.47,29.40,10,9,2,23,12,30,0.00,4,,329
2011-11-6,30,28,24,25,22,19,86,77,64,29.95,29.68,29.51,10,9,3,29,19,36,0.00,7,,278
2011-11-7,39,26,12,23,16,7,100,69,39,30.10,30.06,29.99,10,10,10,13,7,,0.00,1,,218
2011-11-8,44,28,12,23,17,7,93,67,37,30.21,30.08,30.03,10,10,10,21,9,29,0.00,0,,227
2011-11-9,42,28,15,21,15,9,86,64,31,30.41,30.34,30.26,10,10,10,12,8,16,0.00,0,,301
2011-11-10,48,30,12,23,19,9,93,58,37,30.24,29.93,29.70,10,10,10,16,9,20,0.00,0,,213
2011-11-11,59,46,33,21,18,12,52,37,20,29.70,29.57,29.37,10,10,10,16,11,22,0.00,0,,240
2011-11-12,55,44,33,27,21,16,75,44,25,29.35,29.31,29.27,10,10,10,18,11,24,0.00,4,,257
2011-11-13,48,40,33,30,25,19,81,58,32,29.30,29.27,29.23,10,10,10,30,12,39,0.00,5,,255
2011-11-14,44,34,24,28,23,18,86,68,39,29.49,29.42,29.38,10,10,10,21,11,24,0.00,2,,252
2011-11-15,33,22,12,25,14,7,86,66,35,30.01,29.82,29.52,10,10,10,30,18,39,0.00,3,,287
2011-11-16,33,22,12,14,9,3,85,58,32,30.17,30.12,30.02,10,10,9,16,12,23,0.00,1,,284
2011-11-17,37,22,8,16,7,1,85,59,36,30.04,29.75,29.49,10,10,7,14,4,,0.00,4,,172
2011-11-18,35,20,5,19,9,-2,80,60,38,29.91,29.73,29.58,10,10,10,23,13,31,0.00,2,,319
2011-11-19,8,4,1,3,0,-4,85,79,67,30.08,30.02,29.92,10,7,1,16,9,20,0.00,8,,42
2011-11-20,26,10,-5,12,2,-17,100,71,50,30.03,29.97,29.92,10,10,10,18,8,17,0.00,0,,210
2011-11-21,35,19,3,23,13,-2,100,75,56,30.00,29.93,29.85,10,10,10,12,6,,0.00,0,,193
2011-11-22,44,28,12,28,21,7,93,74,49,29.93,29.87,29.77,10,10,10,14,7,,0.00,0,,184
2011-11-23,57,44,30,30,27,21,80,57,33,29.89,29.79,29.66,10,10,10,16,10,18,0.00,0,,188
2011-11-24,55,45,35,28,26,23,70,56,33,29.71,29.67,29.63,10,10,10,15,10,,0.00,0,,198
2011-11-25,50,38,26,30,25,19,93,65,40,30.10,29.74,29.62,10,10,10,31,9,39,0.00,2,,277
2011-11-26,39,31,23,21,10,3,64,44,26,30.47,30.36,30.15,10,10,10,34,20,44,0.00,0,,273
2011-11-27,51,35,19,25,17,9,74,50,28,30.26,30.03,29.82,10,10,10,16,12,22,0.00,0,,187
2011-11-28,51,37,23,30,22,12,74,48,28,30.33,30.15,29.83,10,10,10,23,13,32,0.00,0,,315
2011-11-29,46,35,24,27,24,16,86,66,46,30.26,30.09,29.93,10,10,10,13,6,,0.00,3,,194
2011-11-30,35,30,24,34,26,21,93,81,65,30.45,30.01,29.84,10,8,1,22,8,30,0.01,8,,31